星链-33759 (STARLINK-33759)

导读

STARLINK-33759是美国SpaceX公司星链(Starlink)星座的一员,于2025年5月14日发射入轨。作为低轨宽带通信卫星,它采用平板设计与氪工质霍尔推进器,搭载Ku/Ka波段通信载荷,依托自主避撞和离轨设计保障空间安全,助力星链实现全球高速互联网覆盖,进一步拓展星座的全球服务能力。

基本信息
目录编号:
64007
目录名称:
STARLINK-33759
国际标识:
2025-101P
轨道中心:
EARTH
卫星名称:
星链-33759
卫星全名:
星链-33759 (STARLINK-33759)
卫星状态:
在轨 (已飞行478 天)
发射日期:
2025-05-14 UTC
国别 :
美国 (US)
星等 :
--
轨道信息
数据来源 国际轨道数据 AOE轨道数据
星历时间 2026-09-03T21:53:35+0800
16小时前
查看轨道信息
2026-08-31T12:00:00+0800
4天前
查看轨道信息
半长轴 6861.178km 6861.224km
偏心率 0.0001238 0.0000521
轨道倾角 43.003° 42.999°
近地点辐角 242.725° 166.701°
升交点赤经 73.113° 92.380°
平近点角 117.348° 126.666°
近地点 482.191km 482.729km
远地点 483.891km 483.445km
周期 94.267分钟 94.268分钟
每日圈数 15.275828 15.275676
详细信息
固有亮度:
5
最大亮度:
2.5
卫星平台:
Starlink V1.0
覆盖范围:
全球
运营商:
太空探索技术公司
运营商所在国:
美国
制造商(研发单位):
太空探索技术公司
制造商所在国:
美国
使用方式:
暂无
卫星简介
Starlink 计划是 SpaceX 推出的全球卫星互联网项目,通过发射低轨道卫星,为全球尤其是偏远地区提供高速、低延迟的互联网服务。自 2019 年起,Starlink 已部署数千颗卫星,旨在缩小全球数字鸿沟,推动互联网普及。该项目还为军事、航空等行业提供通信支持,带来广泛经济效益。
2D轨道图
3D轨道图
轨道高度分析图
轨道倾角分析图
轨道综合分析图
查看轨道综合分析图
交会数据列表
事件ID 空间交会对象 最接近时刻(TCA) 交会距离 交会风险概率(CRP) 交会风险指数(CRI) 操作
CDM_260905-025905-935906-400721
2026-09-05T
02:59:11+0000
0.219 km
中距离
5.869449E-4 高风险 0.9
CDM_260905-045305-764806-400721
2026-09-05T
04:53:52+0000
1.188 km
极远距离
9.385196E-6 低风险 0.54
CDM_260905-062805-764806-400721
2026-09-05T
06:28:01+0000
1.430 km
极远距离
5.014234E-6 低风险 0.49
CDM_260905-012505-935906-400721
2026-09-05T
01:25:01+0000
1.953 km
极远距离
2.038073E-6 低风险 0.41
CDM_260905-043305-935906-400721
2026-09-05T
04:33:20+0000
2.420 km
极远距离
1.278752E-6 低风险 0.37